Tracking 18957 objects as of 22-Jan-2018
HD Live streaming from Space Station
objects crossing your sky now

FLOCK 2EP-12

Track FLOCK 2EP-12 now!
10-day predictions
FLOCK 2EP-12 is classified as:


NORAD ID: 41578
Int'l Code: 1998-067KC
Perigee: 288.9 km
Apogee: 293.3 km
Inclination: 51.6 °
Period: 90.2 minutes
Semi major axis: 6662 km
RCS: Unknown
Launch date: November 20, 1998
Source: United States (US)
Launch site: ()
aabbcc
Your satellite tracking list
Your tracking list is empty




NASA's NSSDC Master Catalog

Two Line Element Set (TLE):
1 41578U 98067KC  18022.28987773  .00171382  22852-4  40196-3 0  9997
2 41578  51.6211 319.9536 0003312 140.5753 219.5497 15.96564284 93912
Source of the keplerian elements: AFSPC